"TOA5","AWS1","CR1000","7964","CR1000.Std.14","CPU:AWS1_114.CR1","64363","TBL110"
"TIMESTAMP","RECORD","Wind_spd_WVc(1)","Wind_spd_WVc(2)","Air_Temp_Avg","Humidity_Avg","SW_upper_Wm2_Avg","Rain_Tot","Press_Avg","Issui_Tot","Depth_cm","SR50A_Raw","Quality","Ground_Temp_Avg(1)","Ground_Temp_Avg(2)","SW_lower_Wm2_Avg","Albedo_Avg","SWC_per(1)","SWC_per(2)","Period(1)","Period(2)"
"TS","RN","","","","","","","","","","","","","","","","","","",""
"","","WVc","WVc","Avg","Avg","Avg","Tot","Avg","Tot","Smp","Smp","Smp","Avg","Avg","Avg","Avg","Smp","Smp","Smp","Smp"
"2017-03-24 00:00:00",280573,0,0,-4.072,98.7,0,0,862.5175,0,105.4,2.142,175,0.851,1.336,0.2276051,0,52.32,60.21,33.87,35.73
"2017-03-24 00:10:00",280574,0.008,15.01,-4.109,95.4,0,0,862.3622,0,105.4,2.142,174,0.846,1.367,0.2351923,0,52.32,60.27,33.87,35.74
"2017-03-24 00:20:00",280575,0.198,16.39,-4.022,93.2,0,0,862.5203,0,105.7,2.138,192,0.843,1.369,0.728338,0,52.32,60.21,33.87,35.73
"2017-03-24 00:30:00",280576,0.314,33.45,-3.698,91.6,0,0,862.6215,0,105.6,2.139,179,0.846,1.368,0.7662722,0,52.32,60.21,33.87,35.73
"2017-03-24 00:40:00",280577,0.09,347.3,-3.832,95.3,0,0,862.622,0,105.8,2.138,192,0.842,1.368,0.2920939,0,52.32,60.27,33.87,35.74
"2017-03-24 00:50:00",280578,0.007,3.761,-3.928,100,0,0,862.6327,0,105.8,2.138,192,0.825,1.371,0.2276056,0,52.27,60.21,33.85,35.73
"2017-03-24 01:00:00",280579,0.108,338.7,-3.955,100,0,0,862.6221,0,105.8,2.138,193,0.841,1.367,0.2276056,0,52.32,60.21,33.87,35.73
"2017-03-24 01:10:00",280580,0.177,301.6,-3.972,100,0,0,862.6032,0,105.8,2.138,186,0.831,1.368,0.2276056,0,52.32,60.21,33.87,35.73
"2017-03-24 01:20:00",280581,0.36,21.58,-3.95,100,0.2124529,0,862.5927,0,105.9,2.137,192,0.845,1.368,0.1744976,0.643,52.32,60.21,33.87,35.73
"2017-03-24 01:30:00",280582,0.069,0.858,-3.955,100,0.2360588,0,862.6158,0,105.7,2.139,204,0.849,1.364,0.1175962,0.498,52.32,60.21,33.87,35.73
"2017-03-24 01:40:00",280583,0.264,289.1,-3.979,100,0.2360588,0,862.6116,0,106.1,2.135,202,0.849,1.36,0,0,52.32,60.21,33.87,35.73
"2017-03-24 01:50:00",280584,0.446,299.6,-3.996,100,0.1101608,0,862.6158,0,106.5,2.131,171,0.848,1.353,0,0,52.32,60.21,33.87,35.73
"2017-03-24 02:00:00",280585,0.478,295.8,-4.099,100,0,0,862.6221,0,106.7,2.129,174,0.841,1.36,0,0,52.32,60.21,33.87,35.73
"2017-03-24 02:10:00",280586,0.514,68.97,-4.171,100,0,0,862.6221,0,106.8,2.128,177,0.853,1.345,0.01896713,0,52.32,60.21,33.87,35.73
"2017-03-24 02:20:00",280587,0.374,358.1,-4.208,100,0,0,862.6221,0.5,105.9,2.138,202,0.851,1.346,0.07586853,0,52.27,60.27,33.85,35.74
"2017-03-24 02:30:00",280588,1.073,321.1,-4.383,100,0,0,862.6201,0,106.8,2.129,196,0.853,1.348,0.2162253,0,52.32,60.21,33.87,35.73
"2017-03-24 02:40:00",280589,0.586,38.65,-4.402,98.8,0,0,862.4703,0,106.8,2.129,196,0.846,1.354,0.1555305,0,52.32,60.21,33.87,35.73
"2017-03-24 02:50:00",280590,0.501,55.82,-4.489,95.6,0,0,862.1498,0,106.8,2.13,196,0.846,1.365,0,0,52.32,60.21,33.87,35.73
"2017-03-24 03:00:00",280591,0.542,290,-4.545,95,0,0,862.1161,0,106.8,2.13,195,0.849,1.37,0.09483567,0,52.32,60.21,33.87,35.73
"2017-03-24 03:10:00",280592,0.539,291.1,-4.471,96,0,0,862.1161,0,106.9,2.129,195,0.838,1.372,0.2276056,0,52.32,60.21,33.87,35.73
"2017-03-24 03:20:00",280593,1.178,261.2,-4.469,95.1,0,0,862.1836,0,106.6,2.132,188,0.854,1.37,0.2276056,0,52.32,60.21,33.87,35.73
"2017-03-24 03:30:00",280594,1.19,323.2,-4.607,94.2,0,0,862.251,0,106.1,2.137,202,0.84,1.372,0.2276056,0,52.32,60.21,33.87,35.73
"2017-03-24 03:40:00",280595,1.001,325.5,-4.713,97.9,0,0,862.3627,0,106.1,2.138,225,0.801,1.372,0.0986291,0,52.32,60.21,33.87,35.73
"2017-03-24 03:50:00",280596,1.054,274.6,-4.884,92.3,0,0,862.2216,0,104.2,2.158,210,0.805,1.372,0,0,52.32,60.21,33.87,35.73
"2017-03-24 04:00:00",280597,1.134,308.3,-5.002,91.3,0,0,862.3923,0,104.3,2.157,230,0.81,1.372,0,0,52.32,60.21,33.87,35.73
"2017-03-24 04:10:00",280598,0.876,304.8,-5.083,91.5,0,0,862.6032,0,106.2,2.138,242,0.811,1.377,0,0,52.32,60.21,33.87,35.73
"2017-03-24 04:20:00",280599,0.871,258.5,-5.136,90.2,0,0,862.6201,0,106.4,2.136,233,0.812,1.374,0.003793427,0,52.27,60.21,33.85,35.73
"2017-03-24 04:30:00",280600,0.546,259.2,-5.224,89,0,0,862.4745,0,106.7,2.134,232,0.811,1.379,0,0,52.32,60.21,33.87,35.73
"2017-03-24 04:40:00",280601,0.515,267.9,-5.321,86.6,0,0,862.4577,0,106.4,2.137,211,0.81,1.405,0,0,52.32,60.21,33.87,35.73
"2017-03-24 04:50:00",280602,0.459,235.2,-5.444,86,0,0,862.3923,0,106.5,2.137,204,0.807,1.41,0,0,52.32,60.21,33.87,35.73
"2017-03-24 05:00:00",280603,0.604,308.4,-5.604,86.8,0,0,862.3607,0,106.4,2.138,209,0.809,1.398,0,0,52.32,60.21,33.87,35.73
"2017-03-24 05:10:00",280604,0.542,279.8,-5.653,86.2,0,0,862.3649,0.5,106.4,2.139,200,0.794,1.367,0,0,52.32,60.21,33.87,35.73
"2017-03-24 05:20:00",280605,0.258,207.6,-5.728,87,0,0,862.3691,0,106.4,2.138,199,0.756,1.378,0.06448826,0,52.32,60.21,33.87,35.73
"2017-03-24 05:30:00",280606,0.347,261.1,-5.743,84.4,0,0,862.3691,0,106.7,2.136,189,0.729,1.379,0.06069483,0,52.32,60.21,33.87,35.73
"2017-03-24 05:40:00",280607,0.731,290.7,-5.818,81.9,0,0,862.348,0,106.8,2.135,203,0.726,1.35,0.1024225,0,52.32,60.21,33.87,35.73
"2017-03-24 05:50:00",280608,0.707,283.5,-5.859,79.29,0,0,862.3607,0,106.8,2.136,196,0.725,1.306,1.263211,0,52.27,60.21,33.85,35.73
"2017-03-24 06:00:00",280609,0.481,281.4,-5.92,79.38,0.2950735,0,862.3691,0,107,2.133,197,0.725,1.261,3.429258,2.438,52.32,60.21,33.87,35.73
"2017-03-24 06:10:00",280610,0.564,286.7,-5.866,78,9.048921,0,862.327,0,106.9,2.134,197,0.725,1.252,10.0412,1.401,52.32,60.21,33.87,35.73
"2017-03-24 06:20:00",280611,0.666,296.3,-5.852,78.9,23.34622,0,862.3691,0,106.9,2.133,197,0.725,1.248,19.24405,0.829,52.32,60.21,33.87,35.73
"2017-03-24 06:30:00",280612,0.699,274.3,-5.73,78.88,29.77154,0,862.4534,0,106.8,2.134,192,0.73,1.266,23.33762,0.786,52.32,60.21,33.87,35.73
"2017-03-24 06:40:00",280613,0.607,353.2,-5.783,81.1,33.90798,0,862.5715,0,106.9,2.134,196,0.74,1.302,26.10795,0.773,52.32,60.21,33.87,35.73
"2017-03-24 06:50:00",280614,1.043,297.2,-5.982,86.7,15.71076,0,862.6763,0,107.6,2.128,212,0.741,1.291,13.36134,0.871,52.32,60.21,33.87,35.73
"2017-03-24 07:00:00",280615,0.936,286,-6.09,91,16.60751,0,862.8834,0,107.6,2.128,212,0.737,1.299,19.07803,1.14,52.32,60.21,33.87,35.73
"2017-03-24 07:10:00",280616,0.982,289.6,-5.977,90.4,12.92075,0,862.8792,0,107.9,2.124,192,0.734,1.306,15.35635,1.188,52.27,60.21,33.85,35.73
"2017-03-24 07:20:00",280617,1.435,323.2,-5.95,90.5,22.41851,0,862.9049,0,108.2,2.121,202,0.734,1.321,27.0405,1.201,52.32,60.21,33.87,35.73
"2017-03-24 07:30:00",280618,0.955,301.4,-5.82,87.9,44.23854,0,862.9206,0,107.7,2.126,211,0.731,1.329,52.48339,1.186,52.32,60.21,33.87,35.73
"2017-03-24 07:40:00",280619,1.242,291,-5.943,87.5,37.08544,0,862.9303,0,108.3,2.121,213,0.737,1.333,43.05609,1.159,52.32,60.21,33.87,35.73
"2017-03-24 07:50:00",280620,1.234,294.4,-5.902,87.3,109.4661,0,862.9427,0,107.9,2.123,211,0.738,1.338,97.08675,0.985,52.32,60.21,33.87,35.73
"2017-03-24 08:00:00",280621,0.917,339.6,-5.643,82.8,138.7346,0,862.8331,0,107.8,2.124,206,0.768,1.359,120.9559,0.917,52.32,60.21,33.87,35.73
"2017-03-24 08:10:00",280622,0.497,257.7,-4.768,79.73,191.1469,0,862.6707,0,107.4,2.123,193,0.796,1.364,213.2879,1.156,52.32,60.27,33.87,35.74
"2017-03-24 08:20:00",280623,0.633,273.2,-4.222,75.46,192.9043,0,862.6412,0,107.3,2.125,201,0.8,1.394,188.4849,1.02,52.32,60.21,33.87,35.73
"2017-03-24 08:30:00",280624,1.005,232,-4.73,77.52,114.255,0,862.6653,0,106.8,2.131,194,0.84,1.385,125.485,1.099,52.32,60.21,33.87,35.73
"2017-03-24 08:40:00",280625,0.995,259.5,-4.931,79.49,109.3202,0,862.6434,0,107.4,2.125,198,0.803,1.345,107.3281,1.033,52.32,60.21,33.87,35.73
"2017-03-24 08:50:00",280626,1,237.3,-5.005,82.6,83.04156,0,862.7462,0,107.8,2.122,191,0.78,1.312,92.07122,1.108,52.32,60.21,33.87,35.73
"2017-03-24 09:00:00",280627,1.618,280.6,-5.206,82.8,89.01832,0,862.8711,0,108.3,2.118,187,0.77,1.295,100.3019,1.122,52.32,60.21,33.87,35.73
"2017-03-24 09:10:00",280628,1.233,300.4,-5.071,80.4,189.4496,0,863.0277,0,108.5,2.114,180,0.759,1.288,211.8577,1.119,52.32,60.21,33.87,35.73
"2017-03-24 09:20:00",280629,0.862,319.1,-4.792,79.81,183.6232,0,863.2065,0,108.7,2.111,177,0.764,1.285,188.7654,1.051,52.32,60.21,33.87,35.73
"2017-03-24 09:30:00",280630,1.001,296.8,-4.768,73.89,138.2952,0,863.2845,0,108.6,2.113,176,0.765,1.285,143.6347,1.049,52.32,60.21,33.87,35.73
"2017-03-24 09:40:00",280631,1.353,316,-4.961,73.15,124.6398,0,863.3077,0,108.6,2.115,176,0.766,1.285,133.6083,1.073,52.32,60.21,33.87,35.73
"2017-03-24 09:50:00",280632,0.748,241.1,-4.656,72.38,204.8882,0,863.4995,0.5,108.4,2.113,177,0.766,1.284,200.2891,1.021,52.32,60.21,33.87,35.73
"2017-03-24 10:00:00",280633,1.207,304.1,-4.569,68.62,202.7605,0,863.5479,0,108,2.117,189,0.766,1.27,229.0335,1.13,52.38,60.21,33.88,35.73
"2017-03-24 10:10:00",280634,0.905,322.2,-4.529,65.44,459.4616,0,863.5627,0,107.9,2.115,181,0.757,1.217,274.6187,0.679,52.38,60.27,33.88,35.74
"2017-03-24 10:20:00",280635,0.646,339,-3.641,60.09,369.6444,0,863.647,0,108,2.115,192,0.737,1.294,278.1189,0.852,52.32,60.21,33.87,35.73
"2017-03-24 10:30:00",280636,0.968,17.03,-3.461,58.37,163.3521,0,863.7214,0,107.5,2.116,173,0.768,1.371,374.6894,2.347,52.32,60.21,33.87,35.73
"2017-03-24 10:40:00",280637,1.158,350.9,-3.256,53.89,202.6003,0,863.5619,0,107.2,2.121,181,0.823,1.344,447.3255,2.286,52.32,60.27,33.87,35.74
"2017-03-24 10:50:00",280638,1.096,294.5,-3.301,53.81,341.9112,0,863.5428,0,107.2,2.121,190,0.789,1.279,505.4642,1.544,52.32,60.21,33.87,35.73
"2017-03-24 11:00:00",280639,1.373,351.2,-3.29,47.82,649.5153,0,863.6177,0,106.8,2.125,192,0.708,1.221,554.1989,0.852,52.32,60.27,33.87,35.74
"2017-03-24 11:10:00",280640,1.261,321.8,-2.873,45.09,685.7708,0,863.4592,0,106.3,2.127,192,0.685,1.279,588.1131,0.858,52.32,60.27,33.87,35.74
"2017-03-24 11:20:00",280641,1.092,329.3,-2.329,43.92,764.9543,0,863.4131,0,106.6,2.122,213,0.679,1.324,617.2979,0.808,52.32,60.27,33.87,35.74
"2017-03-24 11:30:00",280642,1.152,267,-2.009,42,800.1377,0,863.3324,0,106.2,2.126,194,0.687,1.298,638.3574,0.798,52.32,60.27,33.87,35.74
"2017-03-24 11:40:00",280643,0.978,180.6,-2.118,42.46,724.8422,0,863.1913,0,106.2,2.123,192,0.741,1.259,595.2978,0.809,52.38,60.27,33.88,35.74
"2017-03-24 11:50:00",280644,1.065,310,-2.177,40.88,486.9169,0,863.1627,0,106.3,2.128,192,0.723,1.242,387.5529,0.783,52.38,60.21,33.88,35.73
"2017-03-24 12:00:00",280645,1.586,283.6,-3.07,45.24,565.7996,0,862.9152,0,106.1,2.13,188,0.693,1.211,438.8369,0.771,52.32,60.21,33.87,35.73
"2017-03-24 12:10:00",280646,0.763,338.5,-2.316,46.88,790.6404,0,862.6395,0,106.2,2.125,172,0.662,1.181,581.1706,0.729,52.32,60.27,33.87,35.74
"2017-03-24 12:20:00",280647,0.937,98.7,-1.423,45.69,888.5234,0,862.5635,0,105.8,2.127,174,0.646,1.167,625.6362,0.702,52.32,60.27,33.87,35.74
"2017-03-24 12:30:00",280648,1.041,196.5,-1.654,48.55,753.1334,0,862.4274,0,105.6,2.129,170,0.643,1.159,513.3333,0.67,52.32,60.21,33.87,35.73
"2017-03-24 12:40:00",280649,1.514,276.3,-1.671,45.1,858.0296,0,862.2979,0,105.6,2.13,170,0.636,1.15,573.2393,0.667,52.32,60.27,33.87,35.74
"2017-03-24 12:50:00",280650,1.568,300.9,-1.741,45.23,854.4227,0,862.2689,0,106,2.128,170,0.633,1.144,561.7527,0.656,52.32,60.27,33.87,35.74
"2017-03-24 13:00:00",280651,1.534,321.5,-2.156,48.86,727.4695,0,862.2655,0,105.9,2.129,191,0.631,1.141,471.3732,0.639,52.32,60.27,33.87,35.74
"2017-03-24 13:10:00",280652,1.079,262.1,-1.655,48.39,914.4274,0,862.1631,0,105.6,2.13,168,0.63,1.124,583.1941,0.634,52.38,60.27,33.88,35.74
"2017-03-24 13:20:00",280653,1.406,351.4,-2.559,52.03,357.157,0,862.1711,0,105.8,2.134,168,0.623,1.131,217.851,0.599,52.32,60.21,33.87,35.73
"2017-03-24 13:30:00",280654,0.871,277.3,-2.855,55.13,648.7162,0,862.0153,0,105.8,2.132,169,0.619,1.149,401.1191,0.617,52.32,60.21,33.87,35.73
"2017-03-24 13:40:00",280655,1.607,301.2,-2.934,57.03,433.4414,0,861.9553,0,105.6,2.137,178,0.591,1.149,259.0634,0.596,52.38,60.27,33.88,35.74
"2017-03-24 13:50:00",280656,1.919,283.6,-3.444,60.37,467.0811,0,861.9454,0,105.3,2.141,184,0.508,1.169,257.7944,0.562,52.32,60.27,33.87,35.74
"2017-03-24 14:00:00",280657,1.974,301.8,-3.259,59.75,727.4227,0,861.8743,0,105.6,2.136,188,0.511,1.19,309.8723,0.443,52.32,60.21,33.87,35.73
"2017-03-24 14:10:00",280658,1.245,315.5,-3.277,60.69,406.7203,0,861.9125,0,105.8,2.136,189,0.536,1.215,185.26,0.507,52.32,60.27,33.87,35.74
"2017-03-24 14:20:00",280659,1.538,281.2,-3.701,60.04,254.8641,0,862.2399,0,105.8,2.136,186,0.579,1.213,143.0998,0.569,52.38,60.21,33.88,35.73
"2017-03-24 14:30:00",280660,0.943,279.4,-3.534,59.1,214.8918,0,862.3448,0,105.9,2.134,189,0.601,1.196,135.2574,0.629,52.32,60.21,33.87,35.73
"2017-03-24 14:40:00",280661,1.291,328.1,-3.23,57.2,145.9305,0,862.36,0,105.6,2.138,188,0.59,1.24,96.20068,0.659,52.38,60.27,33.88,35.74
"2017-03-24 14:50:00",280662,0.929,357.4,-3.226,54.67,186.8061,0,862.5159,0,106.1,2.131,189,0.59,1.208,118.7565,0.636,52.32,60.21,33.87,35.73
"2017-03-24 15:00:00",280663,1.854,327.3,-3.384,52.38,124.6737,0,862.5706,0,105.6,2.138,195,0.6,1.174,76.54426,0.614,52.32,60.21,33.87,35.73
"2017-03-24 15:10:00",280664,1.112,278.5,-3.635,54.39,162.8367,0,862.6088,0,105.6,2.139,201,0.698,1.203,96.43803,0.592,52.32,60.21,33.87,35.73
"2017-03-24 15:20:00",280665,1.521,352.2,-3.816,57.73,161.1508,0,862.6418,0,105.5,2.14,216,0.699,1.264,95.95493,0.596,52.32,60.21,33.87,35.73
"2017-03-24 15:30:00",280666,1.216,340.5,-3.7,60.94,175.7319,0,862.6887,0,105.5,2.138,213,0.672,1.276,105.2957,0.599,52.38,60.21,33.88,35.73
"2017-03-24 15:40:00",280667,0.791,301.5,-3.37,63.4,157.9992,0,862.7347,0,105.4,2.138,202,0.673,1.277,94.43288,0.599,52.32,60.21,33.87,35.73
"2017-03-24 15:50:00",280668,0.731,317.1,-3.171,64.05,163.2565,0,862.9022,0,105.4,2.14,196,0.677,1.28,96.30221,0.591,52.32,60.21,33.87,35.73
"2017-03-24 16:00:00",280669,1.015,358.9,-3.927,67.89,77.16208,0,863.0019,0,105.1,2.146,181,0.626,1.219,48.43171,0.626,52.38,60.21,33.88,35.73
"2017-03-24 16:10:00",280670,1.026,2.503,-4.619,76.14,103.7202,0,863.1981,0,105.1,2.149,190,0.648,1.132,65.79755,0.635,52.38,60.21,33.88,35.73
"2017-03-24 16:20:00",280671,1.361,301.1,-5.015,81.5,161.2526,0,863.2023,0,104.8,2.151,184,0.678,1.141,99.29011,0.616,52.38,60.21,33.88,35.73
"2017-03-24 16:30:00",280672,1.106,285.3,-5.039,80.1,127.6507,0,863.2002,0,104.8,2.152,189,0.69,1.194,77.67817,0.609,52.38,60.27,33.88,35.74
"2017-03-24 16:40:00",280673,1.52,297.6,-5.236,74.34,61.89648,0,863.1957,0,105,2.152,193,0.715,1.233,39.50611,0.64,52.32,60.27,33.87,35.74
"2017-03-24 16:50:00",280674,1.272,294.3,-5.361,73.8,68.44279,0,863.2552,0,104.9,2.152,187,0.74,1.258,42.88485,0.628,52.32,60.21,33.87,35.73
"2017-03-24 17:00:00",280675,0.872,280.5,-5.254,77.42,56.12912,0,863.4777,0,104.8,2.153,192,0.77,1.274,35.44365,0.633,52.32,60.21,33.87,35.73
"2017-03-24 17:10:00",280676,0.679,259.5,-5.375,79.28,47.39164,0,863.5388,0,104.8,2.153,192,0.745,1.281,30.29871,0.642,52.32,60.27,33.87,35.74
"2017-03-24 17:20:00",280677,0.572,244.6,-5.386,77.59,42.40905,0,863.4924,0,104.8,2.153,192,0.732,1.293,27.2767,0.645,52.32,60.21,33.87,35.73
"2017-03-24 17:30:00",280678,0.646,249,-5.512,75.67,33.98869,0,863.3854,0,104.9,2.153,191,0.753,1.313,22.02847,0.648,52.32,60.21,33.87,35.73
"2017-03-24 17:40:00",280679,0.743,241,-5.588,74.19,26.09131,0,863.4613,0,104.9,2.153,187,0.776,1.327,17.03045,0.655,52.32,60.21,33.87,35.73
"2017-03-24 17:50:00",280680,0.701,230.1,-5.649,74.12,15.079,0,863.5393,0,105,2.153,175,0.768,1.3,10.44732,0.701,52.32,60.21,33.87,35.73
"2017-03-24 18:00:00",280681,1.111,296.2,-5.828,73.83,6.194426,0,863.5436,0,105,2.153,174,0.765,1.275,4.94873,0.798,52.32,60.21,33.87,35.73
"2017-03-24 18:10:00",280682,1.09,262.7,-5.906,76.66,1.297884,0,863.4002,0,105.1,2.153,179,0.767,1.286,1.604084,1.282,52.32,60.21,33.87,35.73
"2017-03-24 18:20:00",280683,0.669,197.4,-6.052,79.65,0,0,863.1915,0,105.1,2.153,187,0.754,1.3,0.1668608,0,52.32,60.21,33.87,35.73
"2017-03-24 18:30:00",280684,0.623,180.2,-6.095,78.97,0,0,863.2421,0,105.1,2.153,192,0.763,1.332,0,0,52.38,60.21,33.88,35.73
"2017-03-24 18:40:00",280685,0.49,214.9,-6.124,77.21,0,0,863.372,0,105.1,2.153,190,0.792,1.376,0,0,52.32,60.21,33.87,35.73
"2017-03-24 18:50:00",280686,0.268,191.1,-6.161,75.28,0,0,863.6048,0,105.1,2.153,187,0.802,1.396,0,0,52.32,60.21,33.87,35.73
"2017-03-24 19:00:00",280687,0.26,222.1,-6.223,74.96,0,0,863.6216,0,105.1,2.154,187,0.789,1.394,0,0,52.32,60.21,33.87,35.73
"2017-03-24 19:10:00",280688,0.427,261.4,-6.275,75.25,0,0,863.6332,0,105.2,2.153,186,0.757,1.353,0.04172764,0,52.32,60.21,33.87,35.73
"2017-03-24 19:20:00",280689,0.788,269.5,-6.179,74.91,0,0,863.7183,0,105.2,2.153,187,0.732,1.333,0.2276055,0,52.32,60.21,33.87,35.73
"2017-03-24 19:30:00",280690,0.66,240.4,-6.159,77.12,0,0,863.8977,0,105.1,2.153,187,0.725,1.282,0.2276056,0,52.38,60.21,33.88,35.73
"2017-03-24 19:40:00",280691,1.166,279.5,-6.205,80.8,0,0,864.1613,0,105.1,2.154,192,0.725,1.269,0.2086385,0,52.32,60.21,33.87,35.73
"2017-03-24 19:50:00",280692,1.185,275,-6.401,85,0,0,864.3974,0,105.6,2.151,176,0.727,1.278,0.1251831,0,52.32,60.27,33.87,35.74
"2017-03-24 20:00:00",280693,0.688,297.3,-6.722,87.7,0,0,864.3932,0,105.2,2.155,171,0.727,1.255,0.01138028,0,52.32,60.21,33.87,35.73
"2017-03-24 20:10:00",280694,1.184,300.9,-6.826,89.1,0,0,864.5977,0,105.1,2.156,172,0.736,1.245,0.06448826,0,52.32,60.27,33.87,35.74
"2017-03-24 20:20:00",280695,0.966,299.5,-6.85,88.9,0,0,864.6462,0,105.4,2.153,192,0.744,1.243,0.1517371,0,52.32,60.21,33.87,35.73
"2017-03-24 20:30:00",280696,1.094,285.8,-6.803,88.1,0,0,864.7432,0,105.5,2.152,171,0.749,1.243,0.2276056,0,52.32,60.27,33.87,35.74
"2017-03-24 20:40:00",280697,0.885,286.9,-6.856,85.8,0,0,864.7495,0,105.4,2.153,188,0.753,1.243,0.2276056,0,52.32,60.27,33.87,35.74
"2017-03-24 20:50:00",280698,0.876,263.4,-6.89,82.6,0,0,864.8676,0,105.3,2.155,188,0.764,1.245,0.01138028,0,52.32,60.21,33.87,35.73
"2017-03-24 21:00:00",280699,0.506,243,-7.076,81.8,0,0,864.8676,0,105.2,2.156,187,0.778,1.256,0,0,52.32,60.27,33.87,35.74
"2017-03-24 21:10:00",280700,0.599,270.7,-7.126,81.9,0,0,864.9284,0,105.2,2.156,192,0.796,1.29,0,0,52.32,60.21,33.87,35.73
"2017-03-24 21:20:00",280701,0.56,251.8,-7.249,82.1,0,0,864.9455,0,105.1,2.158,184,0.839,1.347,0,0,52.32,60.21,33.87,35.73
"2017-03-24 21:30:00",280702,0.646,269.5,-7.295,79.48,0,0,864.9622,0,105.1,2.159,192,0.883,1.402,0,0,52.32,60.21,33.87,35.73
"2017-03-24 21:40:00",280703,0.134,66.18,-7.736,82.3,0,0,865.0042,0,105.2,2.16,192,0.894,1.413,0,0,52.27,60.21,33.85,35.73
"2017-03-24 21:50:00",280704,0.126,198,-8.1,83.9,0,0,864.9813,0,105.3,2.16,187,0.891,1.416,0,0,52.32,60.27,33.87,35.74
"2017-03-24 22:00:00",280705,0.208,138,-8.2,84.2,0,0,865.083,0,105.2,2.161,192,0.861,1.417,0,0,52.32,60.21,33.87,35.73
"2017-03-24 22:10:00",280706,0.103,93.5,-8.53,85.8,0,0,864.9898,0,105.1,2.162,192,0.817,1.417,0,0,52.32,60.21,33.87,35.73
"2017-03-24 22:20:00",280707,0.315,169.2,-8.69,85.6,0,0,864.7455,0,105.2,2.164,187,0.793,1.417,0,0,52.32,60.27,33.87,35.74
"2017-03-24 22:30:00",280708,0.534,157,-8.92,87,0,0,864.7308,0,105.6,2.158,190,0.794,1.416,0.07589447,0,52.32,60.21,33.87,35.73
"2017-03-24 22:40:00",280709,0.777,181.6,-8.15,83.8,0,0,864.4862,0,105.3,2.159,192,0.783,1.41,0.5160824,0,52.32,60.21,33.87,35.73
"2017-03-24 22:50:00",280710,0.674,241.2,-7.775,80,0,0,864.4862,0,105,2.161,187,0.776,1.398,0.2087098,0,52.32,60.21,33.87,35.73
"2017-03-24 23:00:00",280711,0.251,143.5,-8.23,80,0,0,864.2774,0,105.6,2.158,187,0.771,1.341,0.003794723,0,52.32,60.21,33.87,35.73
"2017-03-24 23:10:00",280712,0.352,170.9,-8.34,79.35,0,0,864.1508,0,104.9,2.165,190,0.794,1.297,0,0,52.32,60.27,33.87,35.74
"2017-03-24 23:20:00",280713,0.176,138.5,-8.74,80.3,0,0,863.9948,0,105.1,2.164,186,0.806,1.265,0,0,52.32,60.21,33.87,35.73
"2017-03-24 23:30:00",280714,0.04,147.1,-8.69,79.55,0,0,864.0538,0,105.2,2.162,191,0.812,1.274,0,0,52.32,60.27,33.87,35.74
"2017-03-24 23:40:00",280715,0.161,155.5,-8.65,77.8,0,0,864.2162,0,105.3,2.161,190,0.818,1.296,0.007589772,0,52.32,60.21,33.87,35.73
"2017-03-24 23:50:00",280716,0.101,127.5,-8.53,75.61,0,0,864.231,0,105.1,2.165,190,0.828,1.313,0.1442067,0,52.32,60.21,33.87,35.73
